COSMOS 1670 DEB, 44569

Orbit data source: Space-Track

COSMOS 1670 DEB, 44569 is space debris in LEO originally from a launch on Thu, 01 Aug 1985 UTC launched from the Tyuratam Missile And Space Complex (TTMTR). Debris objects in space refer to the collection of defunct objects orbiting the Earth. Examples of debris include non-operational satellites, rocket bodies, and fragments generated from explosions, collisions, or faulty payload assembly.

Loading next visibility...
Identifier
44569, 1985-064F
Orbit
LEO
Country
Flag of CISCIS
Related business
Manufacturer
Unknown
Mission
Spacecraft
Bus & Motor
Unknown
Mass
Unknown
Launch date (UTC)
1985-08-01 (41 years ago)
Launch vehicle
Unknown
Launch site
Tyuratam Missile And Space Complex (TTMTR)
Object type
Payload
Rocket body
Debris
Shape & HBR
Unknown shape, 0.1 m
Radar Cross Section
Small (<0.1 m²)

Expand to show TLE details & history
Last TLE update: 3 days ago

TLE from 3 days ago
0 COSMOS 1670 DEB
1 44569U 85064F   26122.26714292  .00040385  00000-0  75429-2 0  9996
2 44569  64.8952 119.1664 0033528 334.0922  41.8493 14.64334888 99428
Epoch: 2026-05-02T06:24Z
TLE epoch observation values (Epoch: 2026-05-02T06:24:41.148Z)
Latitude
14.62288°
Longitude
169.79096°
Altitude
662.892 km
Speed
7.537 km/s
True Right ascension
08h 24m 35s
True Declination
14° 32' 17"
Sunlit
Object was in daylight at epoch
Visualization orbit readout
Latitude
Unknown
Longitude
Unknown
Altitude
Unknown
Speed
Unknown
Apparent Right ascension
Unknown
Apparent Declination
Unknown
Sunlit
N/A
Visualization observer readout
Local Sidereal Time
10:50:08
Azimuth
Unknown
Elevation
Unknown
Doppler factor
Unknown
Orbital elements
Apogee altitude
701.438 km
Perigee altitude
654.124 km
Semi-major axis
7,055.918 km
Eccentricity
0.00335
Inclination
64.8952°
RAAN
119.1664°
Arg. of periapsis
334.0922°
True anomaly
42.10643°
Mean anomaly
41.8493°
Eccentric anomaly
41.97779°
Mean motion
3.66195 °/min
Orbital period
98.31 mins
BSTAR
0.0075429
Loading maneuver chart data...
Computing Atmospheric mass density...
Loading historical data...
Loading historical data...
Loading historical data...
Loading historical data...
Loading historical data...
Loading historical data...
Loading historical data...

Documentation

Showing up to 5 results
|